Home   Weather   Istanbul   Past weeks

Flag for Turkey Past Weather in Istanbul, Turkey — Yesterday and Last 2 Weeks

Now
45 °F

Sprinkles. Broken clouds.


Feels Like: 37 °F
Forecast: 40 / 44 °F
Wind: 18 mph from North

Location: Istanbul Ataturk Airport

Current Time: Jan 18, 2017 at 5:34:04 pm

Latest Report: Jan 18, 2017 at 4:50 pm


Visibility: 4 mi

Pressure: 30.27 "Hg

Humidity: 87%

Dew Point: 41 °F

Location of IstanbulLocation

Past Weather in Istanbul — Graph

°F

Istanbul Temperature Yesterday

Maximum temperature yesterday: 48 °F (at 12:50 pm)
Minimum temperature yesterday: 39 °F (at 12:20 am)
Average temperature yesterday: 44 °F

High & Low Weather Summary for the Past Weeks

 TemperatureHumidityPressure
High54 °F (Jan 6, 2:50 am)100% (Jan 6, 7:50 pm)30.27 "Hg (Jan 6, 7:50 pm)
Low23 °F (Jan 7, 1:20 pm)50% (Jan 13, 3:50 pm)29.59 "Hg (Jan 6, 8:20 am)
Average40 °F81%29.96 "Hg
* Reported Jan 3 4:20 pm — Jan 18 4:20 pm, Istanbul, Weather by CustomWeather, © 2017

Note: Actual official high and low records may vary slightly from our data, if they occured in-between our weather recording intervals... More about our weather records

Advertising

Istanbul Weather History for the Previous 24 Hours

Scroll right to see more
 ConditionsComfort  
Time TempWeatherWind HumidityBarometerVisibility
4:20 pm
Wed, Jan 18
45 °FSprinkles. Broken clouds.16 mph93%30.27 "Hg4 mi
3:50 pm45 °FSprinkles. Broken clouds.17 mph93%30.24 "Hg5 mi
3:20 pm45 °FSprinkles. Broken clouds.17 mph93%30.24 "HgN/A
2:50 pm45 °FSprinkles. Broken clouds.17 mph93%30.24 "Hg4 mi
2:20 pm45 °FSprinkles. Broken clouds.16 mph93%30.21 "Hg4 mi
1:50 pm46 °FSprinkles. Broken clouds.16 mph87%30.21 "Hg4 mi
1:20 pm46 °FSprinkles. Broken clouds.15 mph93%30.21 "Hg6 mi
12:50 pm46 °FSprinkles. Broken clouds.13 mph93%30.21 "Hg4 mi
12:20 pm46 °FSprinkles. Broken clouds.12 mph93%30.21 "HgN/A
11:50 am46 °FSprinkles. Broken clouds.13 mph93%30.21 "Hg4 mi
11:20 am46 °FSprinkles. Broken clouds.12 mph93%30.18 "HgN/A
10:50 am46 °FSprinkles. Broken clouds.13 mph93%30.18 "HgN/A
10:20 am45 °FSprinkles. Fog.14 mph93%30.18 "Hg2 mi
9:50 am46 °FSprinkles. Fog.9 mph93%30.15 "Hg2 mi
9:20 am46 °FSprinkles. Broken clouds.8 mph87%30.15 "Hg4 mi
8:50 am46 °FSprinkles. Broken clouds.10 mph87%30.12 "HgN/A
8:20 am46 °FSprinkles. Partly cloudy.7 mph93%30.12 "HgN/A
7:50 am46 °FSprinkles. Partly cloudy.10 mph93%30.12 "Hg5 mi
7:20 am46 °FSprinkles. Partly cloudy.9 mph87%30.09 "HgN/A
6:50 am46 °FPartly cloudy.8 mph87%30.09 "HgN/A
6:20 am46 °FSprinkles. Partly cloudy.9 mph93%30.07 "HgN/A
5:50 am46 °FSprinkles. Passing clouds.9 mph87%30.07 "HgN/A
5:20 am46 °FPassing clouds.10 mph87%30.07 "HgN/A
4:50 am46 °FPassing clouds.8 mph87%30.07 "HgN/A
4:20 am46 °FPassing clouds.8 mph87%30.07 "HgN/A
3:50 am46 °FPassing clouds.9 mph87%30.07 "HgN/A
3:20 am46 °FPassing clouds.9 mph87%30.07 "HgN/A
2:50 am46 °FPassing clouds.10 mph87%30.07 "HgN/A
2:20 am48 °FPassing clouds.10 mph82%30.07 "HgN/A
1:50 am46 °FPassing clouds.12 mph87%30.07 "HgN/A
1:20 am46 °FPassing clouds.10 mph87%30.07 "HgN/A
12:50 am46 °FPassing clouds.9 mph87%30.07 "HgN/A
12:20 am46 °FSprinkles. Partly cloudy.10 mph93%30.07 "HgN/A
11:50 pm
Tue, Jan 17
46 °FPartly cloudy.12 mph93%30.07 "HgN/A
11:20 pm46 °FSprinkles. Passing clouds.10 mph93%30.07 "HgN/A
10:50 pm46 °FSprinkles. Passing clouds.9 mph93%30.07 "HgN/A
10:20 pm46 °FSprinkles. Passing clouds.9 mph87%30.07 "HgN/A
9:50 pm46 °FSprinkles. Passing clouds.9 mph93%30.07 "Hg4 mi
9:20 pm46 °FSprinkles. Partly cloudy.7 mph87%30.07 "HgN/A
8:50 pm46 °FSprinkles. Passing clouds.10 mph87%30.04 "HgN/A
8:20 pm46 °FSprinkles. Partly cloudy.13 mph87%30.04 "HgN/A
7:50 pm46 °FSprinkles. Passing clouds.14 mph87%30.04 "HgN/A
7:20 pm46 °FPartly cloudy.10 mph87%30.04 "HgN/A
6:50 pm46 °FLight rain. Passing clouds.12 mph87%30.04 "Hg4 mi
6:20 pm46 °FLight rain. Mostly cloudy.10 mph87%30.04 "Hg4 mi
5:50 pm46 °FLight rain. Mostly cloudy.10 mph87%30.04 "Hg4 mi
5:20 pm48 °FLight rain. Mostly cloudy.9 mph87%30.04 "Hg4 mi
Weather by CustomWeather, © 2017

See weather overviewHow to use our weather pages